Location: Newark
(49.8969°N, 3.3422°E)
Time: 20:23:18
(UTC+00:00)

Envisat - Pass Details

Date: 15 December 2019
Orbit: 764 x 766 km, 98.1° (Epoch: 28 January)

Event Time Altitude Azimuth Distance (km) Brightness Sun altitude
Rises 17:51:00 0° 174° (S) 3,221 6.3 -19.0°
Reaches altitude 10° 17:53:20 10° 178° (S) 2,300 5.6 -19.4°
Maximum altitude 17:58:21 61° 259° (W) 869 3.5 -20.2°
Drops below altitude 10° 18:03:24 10° 340° (NNW) 2,317 5.6 -21.0°
Sets 18:05:45 0° 344° (NNW) 3,247 6.3 -21.4°
